DW7831 Weather Reports


Display with metric or nautical units.
time (UTC)temp
F
wind
direction
speed
MPH
gust
MPH
rain 1hr
in
rain 24hr
in
rain mn
in
humidity
%
barometer
mb
20260831074540 61 230 0.0 0.0 0.00 0.00 0.00 100 1020.3
20260831073038 61 230 0.0 0.0 0.00 0.00 0.00 100 1019.9
20260831071534 62 230 0.0 0.0 0.00 0.00 0.00 100 1019.9
20260831070030 62 230 0.0 0.0 0.00 0.00 0.00 100 1020.0
20260831064527 62 230 0.0 0.0 0.00 0.00 0.00 100 1020.3
20260831063023 62 230 0.0 0.0 0.00 0.00 0.00 100 1020.4
20260831061519 62 230 0.0 0.0 0.00 0.00 0.00 100 1020.5
20260831060014 62 230 1.0 0.0 0.00 0.00 0.00 100 1020.6
20260831054512 62 230 0.0 0.0 0.00 0.00 0.00 100 1020.7
20260831053006 62 230 0.0 0.0 0.00 0.00 0.00 100 1020.6
20260831051502 62 231 0.0 0.0 0.00 0.00 0.00 100 1020.6
20260831050058 62 231 0.0 0.0 0.00 0.00 0.00 100 1020.7
20260831044601 62 231 0.0 0.0 0.00 0.00 0.00 100 1020.7
20260831043050 62 229 0.0 0.0 0.00 0.00 0.00 100 1020.7
20260831040043 62 229 0.0 0.0 0.00 0.00 0.00 100 1020.9
20260831034537 62 229 0.0 0.0 0.00 0.00 0.01 100 1020.9
20260831033036 62 229 0.0 0.0 0.00 0.00 0.01 100 1020.9
20260831031534 62 228 0.0 0.0 0.00 0.00 0.01 100 1020.9
20260831030031 62 228 0.0 0.0 0.00 0.00 0.01 100 1020.9
20260831024528 62 228 1.0 0.0 0.00 0.00 0.01 100 1020.9
20260831023020 62 229 0.0 0.0 0.00 0.00 0.01 100 1020.9
20260831021525 63 229 0.0 0.0 0.00 0.00 0.01 100 1020.8
20260831020013 63 229 0.0 0.0 0.00 0.00 0.01 100 1020.9
20260831014517 63 229 1.0 0.0 0.00 0.00 0.01 100 1020.9
20260831013005 63 225 3.0 0.0 0.00 0.00 0.01 100 1020.9
20260831011600 63 242 1.0 0.0 0.00 0.00 0.01 100 1020.7
20260831010119 62 248 1.0 0.0 0.00 0.00 0.01 100 1020.5
20260831004555 63 257 0.0 0.0 0.00 0.00 0.01 100 1020.2
20260831003048 63 259 0.0 0.0 0.00 0.00 0.01 100 1019.8
20260831001544 63 259 0.0 0.0 0.00 0.00 0.01 100 1019.6
20260831000140 63 259 0.0 0.0 0.00 0.00 0.01 100 1019.3
20260830234538 63 260 0.0 0.0 0.00 0.00 0.01 100 1019.1
20260830233035 63 261 0.0 0.0 0.00 0.00 0.01 100 1019.2
20260830231529 63 262 1.0 0.0 0.00 0.00 0.01 100 1019.0
20260830230026 64 278 0.0 0.0 0.00 0.00 0.01 100 1019.2
20260830224523 64 279 0.0 0.0 0.00 0.00 0.01 100 1019.2
20260830223017 64 284 0.0 0.0 0.00 0.00 0.01 100 1019.2
20260830221512 65 288 0.0 0.0 0.00 0.00 0.01 100 1019.2
20260830220009 65 288 0.0 0.0 0.00 0.00 0.01 100 1019.1
20260830214504 66 288 0.0 0.0 0.00 0.00 0.00 13 1019.1
20260830213005 67 287 2.0 0.0 0.00 0.00 0.00 33 1019.0
20260830211600 69 264 2.0 0.0 0.00 0.00 0.00 44 1018.7
20260830210054 70 257 2.0 0.0 0.00 0.00 0.00 52 1018.6
20260830204549 71 240 1.0 0.0 0.00 0.00 0.00 51 1018.5
20260830203047 71 248 1.0 0.0 0.00 0.00 0.00 51 1018.3
20260830201545 72 249 2.0 0.0 0.00 0.00 0.00 52 1018.3
20260830200037 72 249 1.0 0.0 0.00 0.00 0.00 53 1018.6
20260830194543 73 263 1.0 0.0 0.00 0.00 0.00 54 1018.4
20260830193034 73 252 2.0 0.0 0.00 0.00 0.00 54 1018.6
20260830191527 74 269 3.0 0.0 0.00 0.00 0.00 53 1018.7
20260830190026 73 316 3.0 0.0 0.00 0.00 0.00 53 1018.8
20260830184524 74 264 3.0 0.0 0.00 0.00 0.00 52 1019.0
20260830183015 74 224 3.0 0.0 0.00 0.00 0.00 51 1018.9
20260830181511 74 202 4.0 0.0 0.00 0.00 0.00 51 1019.0
20260830180007 74 234 4.0 0.0 0.00 0.00 0.00 48 1019.3
20260830174501 73 179 3.0 0.0 0.00 0.00 0.00 45 1019.3
20260830171633 72 247 4.0 0.0 0.00 0.00 0.00 46 1019.6
20260830170052 72 238 3.0 0.0 0.00 0.00 0.00 45 1019.7
20260830164548 71 196 5.0 0.0 0.00 0.00 0.00 45 1020.0
20260830161543 71 190 3.0 0.0 0.00 0.00 0.00 47 1020.1
20260830160035 70 181 4.0 0.0 0.00 0.00 0.00 49 1020.3
20260830154531 70 246 3.0 0.0 0.00 0.00 0.00 49 1020.3
20260830151524 68 223 2.0 0.0 0.00 0.00 0.00 49 1020.8
20260830150022 68 203 2.0 0.0 0.00 0.00 0.00 50 1020.9
20260830144519 68 211 2.0 0.0 0.00 0.00 0.00 48 1020.9
20260830141509 66 221 1.0 0.0 0.00 0.00 0.00 45 1021.1
20260830140005 65 234 1.0 0.0 0.00 0.00 0.00 40 1021.2
20260830134600 63 234 0.0 0.0 0.00 0.00 0.00 17 1021.4
20260830131555 62 234 0.0 0.0 0.00 0.00 0.00 100 1021.8
20260830130057 61 234 0.0 0.0 0.00 0.00 0.00 100 1021.8
20260830124544 61 234 0.0 0.0 0.00 0.00 0.00 100 1021.9
20260830121540 59 234 0.0 0.0 0.00 0.00 0.00 100 1022.4
20260830120035 57 234 0.0 0.0 0.00 0.00 0.00 100 1022.4
20260830114535 56 234 0.0 0.0 0.00 0.00 0.00 100 1022.5
20260830111522 54 234 0.0 0.0 0.00 0.00 0.00 100 1022.6
20260830110019 54 234 0.0 0.0 0.00 0.00 0.00 100 1022.5
20260830104514 55 234 0.0 0.0 0.00 0.00 0.00 100 1022.5
20260830101506 55 234 0.0 0.0 0.00 0.00 0.00 100 1022.9
20260830100002 55 234 0.0 0.0 0.00 0.00 0.00 100 1022.9
20260830094558 55 234 0.0 0.0 0.00 0.00 0.00 100 1022.6
20260830091549 55 234 0.0 0.0 0.00 0.00 0.00 100 1022.7
20260830090044 55 234 0.0 0.0 0.00 0.00 0.00 100 1022.9
20260830084613 55 234 0.0 0.0 0.00 0.00 0.00 100 1023.1
20260830081532 55 234 0.0 0.0 0.00 0.00 0.00 100 1023.1
20260830080028 54 234 0.0 0.0 0.00 0.00 0.00 100 1023.2